�������l�o���
Date,Time,MP-1(��Sv/h),MP-2(��Sv/h),MP-3(��Sv/h),MP-4(��Sv/h),MP-5(��Sv/h),MP-6(��Sv/h),MP-7(��Sv/h),MP-8(��Sv/h),����,����(m/s),���J
2017/01/19,00:00,1.094,1.817,1.184,2.053,1.430,0.561,1.028,0.956,��,4.2,��
2017/01/19,00:10,1.093,1.819,1.186,2.054,1.430,0.563,1.029,0.954,��쓌,4.9,��
2017/01/19,00:20,1.092,1.818,1.184,2.055,1.428,0.561,1.029,0.954,��,6.1,��
2017/01/19,00:30,1.091,1.819,1.185,2.052,1.430,0.562,1.031,0.953,��쓌,6.0,��
2017/01/19,00:40,1.093,1.816,1.183,2.053,1.429,0.563,1.030,0.955,��쓌,5.3,��
2017/01/19,00:50,1.092,1.815,1.186,2.055,1.432,0.561,1.032,0.955,��쓌,5.9,��
2017/01/19,01:00,1.092,1.817,1.186,2.057,1.430,0.565,1.030,0.956,��,4.9,��
2017/01/19,01:10,1.095,1.818,1.185,2.056,1.429,0.562,1.029,0.954,��,4.2,��
2017/01/19,01:20,1.093,1.819,1.185,2.054,1.431,0.564,1.031,0.955,��쓌,4.8,��
2017/01/19,01:30,1.093,1.816,1.185,2.055,1.427,0.563,1.031,0.954,��,3.5,��
2017/01/19,01:40,1.097,1.819,1.186,2.056,1.428,0.561,1.031,0.956,�쓌,1.9,��
2017/01/19,01:50,1.093,1.817,1.185,2.054,1.427,0.562,1.030,0.956,�쓌,2.8,��
2017/01/19,02:00,1.094,1.821,1.185,2.054,1.431,0.563,1.031,0.957,�쓌,5.1,��
2017/01/19,02:10,1.096,1.818,1.184,2.056,1.432,0.561,1.031,0.957,��쓌,6.8,��
2017/01/19,02:20,1.092,1.818,1.185,2.053,1.430,0.563,1.032,0.956,��쓌,4.8,��
2017/01/19,02:30,1.094,1.821,1.185,2.056,1.430,0.565,1.029,0.955,��,5.2,��
2017/01/19,02:40,1.094,1.819,1.185,2.053,1.430,0.562,1.031,0.956,��,3.2,��
2017/01/19,02:50,1.094,1.817,1.183,2.054,1.431,0.563,1.030,0.956,��,5.0,��
2017/01/19,03:00,1.093,1.817,1.186,2.054,1.431,0.563,1.031,0.956,��,3.6,��
2017/01/19,03:10,1.095,1.818,1.184,2.053,1.430,0.561,1.030,0.955,��,1.9,��
2017/01/19,03:20,1.095,1.818,1.186,2.054,1.429,0.562,1.029,0.954,��쐼,1.5,��
2017/01/19,03:30,1.092,1.821,1.186,2.056,1.426,0.561,1.029,0.954,���쐼,2.0,��
2017/01/19,03:40,1.093,1.817,1.186,2.055,1.429,0.561,1.029,0.955,��,2.6,��
2017/01/19,03:50,1.094,1.815,1.186,2.056,1.430,0.562,1.028,0.955,���k��,1.9,��
2017/01/19,04:00,1.093,1.817,1.182,2.053,1.429,0.561,1.030,0.955,��쐼,1.5,��
2017/01/19,04:10,1.093,1.818,1.185,2.055,1.426,0.562,1.030,0.955,��쐼,2.0,��
2017/01/19,04:20,1.094,1.817,1.185,2.053,1.429,0.562,1.030,0.956,��,2.5,��
2017/01/19,04:30,1.092,1.817,1.183,2.054,1.428,0.563,1.030,0.954,��,2.6,��
2017/01/19,04:40,1.095,1.819,1.184,2.054,1.427,0.564,1.030,0.954,���k��,2.6,��
2017/01/19,04:50,1.094,1.819,1.182,2.055,1.430,0.561,1.028,0.957,���k��,2.3,��
2017/01/19,05:00,1.093,1.822,1.184,2.051,1.427,0.562,1.030,0.956,��,4.0,��
2017/01/19,05:10,1.091,1.816,1.185,2.054,1.430,0.560,1.030,0.953,���k��,4.6,��
2017/01/19,05:20,1.091,1.820,1.185,2.053,1.426,0.561,1.031,0.956,�k�k��,2.9,��
2017/01/19,05:30,1.092,1.819,1.183,2.052,1.429,0.561,1.030,0.956,�k�k��,1.5,��
2017/01/19,05:40,1.093,1.816,1.182,2.055,1.428,0.561,1.030,0.955,���쐼,1.9,��
2017/01/19,05:50,1.091,1.816,1.183,2.054,1.430,0.562,1.031,0.956,���k��,4.5,��
2017/01/19,06:00,1.091,1.814,1.183,2.053,1.427,0.562,1.031,0.954,���k��,5.3,��
2017/01/19,06:10,1.089,1.816,1.183,2.053,1.426,0.560,1.030,0.957,���쐼,4.2,��
2017/01/19,06:20,1.091,1.817,1.184,2.053,1.428,0.560,1.028,0.956,�쐼,2.5,��
2017/01/19,06:30,1.091,1.816,1.183,2.051,1.426,0.558,1.030,0.955,��,2.6,��
2017/01/19,06:40,1.090,1.812,1.182,2.050,1.427,0.559,1.028,0.953,��,2.6,��
2017/01/19,06:50,1.087,1.813,1.181,2.052,1.426,0.561,1.028,0.954,��,3.2,��
2017/01/19,07:00,1.089,1.818,1.180,2.054,1.428,0.560,1.026,0.954,��,3.4,��
2017/01/19,07:10,1.090,1.815,1.182,2.056,1.425,0.559,1.026,0.954,���k��,5.6,��
2017/01/19,07:20,1.091,1.816,1.181,2.055,1.425,0.560,1.029,0.955,��,4.1,��
2017/01/19,07:30,1.088,1.810,1.183,2.052,1.426,0.561,1.027,0.956,��,4.2,��
2017/01/19,07:40,1.093,1.817,1.181,2.055,1.423,0.559,1.028,0.955,�쐼,3.9,��
2017/01/19,07:50,1.091,1.813,1.181,2.054,1.427,0.562,1.026,0.955,���쐼,4.2,��
2017/01/19,08:00,1.088,1.815,1.182,2.053,1.425,0.561,1.027,0.954,���쐼,4.2,��
2017/01/19,08:10,1.089,1.816,1.182,2.053,1.426,0.561,1.029,0.954,���k��,4.8,��
2017/01/19,08:20,1.085,1.814,1.186,2.055,1.424,0.561,1.029,0.955,���k��,6.7,��
2017/01/19,08:30,1.087,1.815,1.182,2.053,1.429,0.559,1.029,0.955,��,4.8,��
2017/01/19,08:40,1.085,1.816,1.184,2.053,1.427,0.560,1.027,0.954,���k��,5.8,��
2017/01/19,08:50,1.086,1.816,1.182,2.053,1.427,0.558,1.027,0.955,��,4.8,��
2017/01/19,09:00,1.085,1.818,1.182,2.053,1.426,0.561,1.028,0.954,���k��,5.0,��
2017/01/19,09:10,1.082,1.818,1.182,2.058,1.427,0.560,1.028,0.954,���k��,5.5,��
2017/01/19,09:20,1.084,1.818,1.181,2.054,1.428,0.561,1.030,0.955,���k��,6.8,��
2017/01/19,09:30,1.084,1.818,1.184,2.055,1.429,0.561,1.029,0.955,���k��,6.5,��
2017/01/19,09:40,1.083,1.817,1.182,2.057,1.431,0.562,1.029,0.957,���k��,5.8,��
2017/01/19,09:50,1.081,1.819,1.185,2.056,1.430,0.562,1.032,0.955,���k��,5.0,��
2017/01/19,10:00,1.081,1.819,1.186,2.057,1.431,0.561,1.031,0.955,��,4.4,��
2017/01/19,10:10,1.081,1.818,1.181,2.055,1.429,0.563,1.030,0.956,��,5.6,��
2017/01/19,10:20,1.081,1.819,1.186,2.059,1.431,0.561,1.031,0.955,��,5.8,��
2017/01/19,10:30,1.081,1.821,1.187,2.061,1.427,0.561,1.029,0.955,��,5.9,��
2017/01/19,10:40,1.084,1.819,1.187,2.061,1.431,0.561,1.028,0.955,���쐼,5.0,��
2017/01/19,10:50,1.083,1.818,1.187,2.058,1.432,0.562,1.030,0.957,�k��,4.2,��
2017/01/19,11:00,1.084,1.820,1.189,2.060,1.432,0.563,1.028,0.956,�k�k��,4.3,��
2017/01/19,11:10,1.085,1.822,1.188,2.057,1.430,0.562,1.027,0.955,�k�k��,4.0,��
2017/01/19,11:20,1.081,1.820,1.184,2.061,1.431,0.565,1.029,0.956,�k��,2.5,��
2017/01/19,11:30,1.084,1.819,1.183,2.054,1.432,0.561,1.028,0.956,�k��,3.0,��
2017/01/19,11:40,1.082,1.822,1.184,2.058,1.433,0.564,1.028,0.957,�k,3.3,��
2017/01/19,11:50,1.083,1.821,1.180,2.057,1.428,0.563,1.030,0.958,�k��,2.5,��
2017/01/19,12:00,1.084,1.822,1.182,2.059,1.433,0.564,1.028,0.957,�k�k��,3.5,��
2017/01/19,12:10,1.084,1.822,1.187,2.060,1.429,0.563,1.028,0.958,�k�k��,3.5,��
2017/01/19,12:20,1.083,1.820,1.186,2.059,1.433,0.565,1.029,0.957,�k�k��,5.7,��
2017/01/19,12:30,1.084,1.822,1.189,2.061,1.429,0.563,1.030,0.957,�k�k��,5.3,��
2017/01/19,12:40,1.086,1.819,1.188,2.058,1.432,0.566,1.028,0.956,�k�k��,5.1,��
2017/01/19,12:50,1.086,1.822,1.190,2.059,1.433,0.563,1.031,0.956,�k�k��,5.2,��
2017/01/19,13:00,1.086,1.823,1.187,2.060,1.437,0.565,1.029,0.957,�k�k��,4.2,��
2017/01/19,13:10,1.084,1.825,1.188,2.060,1.433,0.562,1.029,0.956,�k�k��,4.9,��
2017/01/19,13:20,1.088,1.819,1.191,2.060,1.434,0.565,1.029,0.956,�k��,4.8,��
2017/01/19,13:30,1.085,1.824,1.188,2.060,1.434,0.565,1.030,0.958,�k,4.2,��
2017/01/19,13:40,1.085,1.826,1.188,2.062,1.434,0.564,1.031,0.959,�k��,4.5,��
2017/01/19,13:50,1.087,1.825,1.187,2.062,1.433,0.563,1.033,0.956,�k��,5.0,��
2017/01/19,14:00,1.084,1.826,1.188,2.062,1.435,0.562,1.029,0.956,���k��,2.9,��
2017/01/19,14:10,1.087,1.824,1.186,2.061,1.434,0.563,1.032,0.957,�k��,3.5,��
2017/01/19,14:20,1.085,1.824,1.183,2.063,1.432,0.565,1.031,0.958,�k��,4.4,��
2017/01/19,14:30,1.084,1.822,1.184,2.061,1.434,0.563,1.031,0.958,�k��,4.2,��
2017/01/19,14:40,1.087,1.823,1.186,2.063,1.436,0.565,1.029,0.957,�k��,7.2,��
2017/01/19,14:50,1.086,1.824,1.187,2.057,1.435,0.562,1.028,0.955,�k��,6.5,��
2017/01/19,15:00,1.084,1.821,1.185,2.060,1.433,0.564,1.030,0.957,�k��,7.8,��
2017/01/19,15:10,1.086,1.824,1.185,2.061,1.436,0.564,1.031,0.959,�k�k��,5.6,��
2017/01/19,15:20,1.087,1.824,1.187,2.063,1.434,0.564,1.029,0.956,�k�k��,4.3,��
2017/01/19,15:30,1.085,1.824,1.187,2.062,1.432,0.564,1.030,0.956,�k��,5.9,��
2017/01/19,15:40,1.084,1.824,1.187,2.060,1.435,0.564,1.031,0.955,�k��,5.8,��
2017/01/19,15:50,1.085,1.825,1.188,2.060,1.435,0.565,1.031,0.957,�k��,5.9,��
2017/01/19,16:00,1.084,1.823,1.187,2.059,1.433,0.565,1.030,0.955,�k��,4.7,��
2017/01/19,16:10,1.084,1.823,1.186,2.063,1.433,0.562,1.030,0.956,��,4.0,��
2017/01/19,16:20,1.084,1.824,1.186,2.063,1.433,0.565,1.032,0.958,��,3.2,��
2017/01/19,16:30,1.085,1.822,1.186,2.062,1.432,0.564,1.032,0.955,��,4.5,��
2017/01/19,16:40,1.083,1.824,1.186,2.061,1.435,0.563,1.030,0.955,��,4.9,��
2017/01/19,16:50,1.086,1.825,1.185,2.062,1.432,0.564,1.033,0.958,��,5.1,��
2017/01/19,17:00,1.083,1.822,1.187,2.062,1.432,0.563,1.031,0.955,��,4.7,��
2017/01/19,17:10,1.081,1.825,1.184,2.060,1.432,0.562,1.032,0.956,��,3.4,��
2017/01/19,17:20,1.082,1.823,1.187,2.058,1.434,0.563,1.030,0.955,��,3.4,��
2017/01/19,17:30,1.082,1.823,1.183,2.058,1.435,0.562,1.030,0.955,���쐼,3.0,��
2017/01/19,17:40,1.082,1.819,1.183,2.060,1.431,0.563,1.029,0.954,��,3.7,��
2017/01/19,17:50,1.082,1.824,1.182,2.056,1.432,0.561,1.032,0.955,��,5.1,��
2017/01/19,18:00,1.081,1.823,1.183,2.059,1.432,0.562,1.031,0.955,��,4.3,��
2017/01/19,18:10,1.081,1.822,1.185,2.058,1.433,0.564,1.031,0.956,��,4.6,��
2017/01/19,18:20,1.080,1.823,1.183,2.060,1.433,0.562,1.029,0.953,��,5.1,��
2017/01/19,18:30,1.079,1.824,1.184,2.057,1.429,0.563,1.028,0.956,��,6.2,��
2017/01/19,18:40,1.082,1.822,1.181,2.059,1.431,0.562,1.030,0.957,��,6.9,��
2017/01/19,18:50,1.080,1.823,1.184,2.058,1.432,0.562,1.030,0.956,��,5.6,��
2017/01/19,19:00,1.080,1.820,1.182,2.059,1.435,0.562,1.029,0.954,��,4.9,��
2017/01/19,19:10,1.080,1.824,1.183,2.060,1.429,0.560,1.031,0.956,��,5.6,��
2017/01/19,19:20,1.080,1.823,1.182,2.057,1.431,0.562,1.029,0.955,��,5.8,��
2017/01/19,19:30,1.081,1.821,1.182,2.061,1.431,0.561,1.027,0.956,���k��,5.8,��
2017/01/19,19:40,1.081,1.821,1.184,2.058,1.431,0.562,1.030,0.954,���k��,6.2,��
2017/01/19,19:50,1.081,1.822,1.182,2.059,1.430,0.562,1.027,0.956,���k��,4.7,��
2017/01/19,20:00,1.081,1.819,1.183,2.060,1.433,0.561,1.029,0.956,���k��,5.4,��
2017/01/19,20:10,1.080,1.822,1.184,2.055,1.430,0.562,1.029,0.954,��,5.2,��
2017/01/19,20:20,1.079,1.822,1.183,2.057,1.432,0.563,1.029,0.953,��,4.5,��
2017/01/19,20:30,1.079,1.823,1.183,2.055,1.432,0.563,1.030,0.955,��,4.4,��
2017/01/19,20:40,1.078,1.821,1.183,2.055,1.430,0.561,1.029,0.956,��,4.6,��
2017/01/19,20:50,1.080,1.822,1.182,2.056,1.430,0.563,1.030,0.955,��,4.0,��
2017/01/19,21:00,1.079,1.818,1.184,2.056,1.429,0.562,1.027,0.955,���k��,6.5,��
2017/01/19,21:10,1.080,1.819,1.182,2.055,1.430,0.562,1.029,0.955,��,6.6,��
2017/01/19,21:20,1.077,1.822,1.184,2.056,1.429,0.562,1.029,0.954,���k��,7.0,��
2017/01/19,21:30,1.075,1.823,1.180,2.060,1.429,0.562,1.029,0.955,��,7.1,��
2017/01/19,21:40,1.076,1.821,1.184,2.059,1.433,0.562,1.031,0.955,��,6.3,��
2017/01/19,21:50,1.078,1.822,1.182,2.058,1.431,0.560,1.030,0.956,��,6.7,��
2017/01/19,22:00,1.078,1.821,1.185,2.057,1.429,0.562,1.029,0.954,���k��,7.9,��
2017/01/19,22:10,1.077,1.822,1.182,2.061,1.427,0.561,1.030,0.955,���k��,7.3,��
2017/01/19,22:20,1.077,1.822,1.182,2.057,1.428,0.562,1.031,0.954,���k��,6.6,��
2017/01/19,22:30,1.076,1.821,1.184,2.059,1.432,0.562,1.029,0.956,���k��,7.3,��
2017/01/19,22:40,1.075,1.822,1.184,2.056,1.431,0.562,1.029,0.955,��,4.5,��
2017/01/19,22:50,1.078,1.820,1.183,2.058,1.429,0.564,1.030,0.955,��,5.3,��
2017/01/19,23:00,1.076,1.819,1.180,2.060,1.429,0.561,1.030,0.956,��,6.7,��
2017/01/19,23:10,1.076,1.820,1.184,2.058,1.429,0.562,1.029,0.955,��,6.4,��
2017/01/19,23:20,1.077,1.821,1.183,2.057,1.429,0.562,1.027,0.956,��,8.1,��
2017/01/19,23:30,1.075,1.822,1.182,2.060,1.430,0.561,1.031,0.956,��,7.4,��
2017/01/19,23:40,1.076,1.821,1.182,2.061,1.429,0.562,1.029,0.955,��,7.8,��
2017/01/19,23:50,1.077,1.818,1.182,2.060,1.427,0.560,1.029,0.956,��,8.3,��
